Powrót do katalogu

STARLINK-35049

AktywnyŁącznośćSSO
NORAD 65444·PAYLOAD·🇺🇸 United States

Wystrzelony Sep 3, 2025 z Vandenberg Space Force Base

Loading…

Następne Przeloty (najbliższe 24 godziny)

TLE

ŚwieżeSource: CelesTrak SupGP

Epoka: Sep 15, 2026, 03:19 UTC

1 65444C 25194L   26258.13868056 -.00033132  00000+0 -10285-2 0  2583
2 65444  97.2846 107.8552 0001764  92.5500 356.2137 15.33455079    18

Śledź STARLINK-35049 w czasie rzeczywistym z AllMySat

Download on the App Store